Weather History for KHOB - February, 2014

Change the Weather History Date:

Tuesday, February 25, 2014

  Actual Average Record
Temperature  
Mean Temperature 42 °F -  
Max Temperature 48 °F 58 °F 80 °F (1950)
Min Temperature 35 °F 33 °F 15 °F (2003)
Degree Days  
Heating Degree Days 22    
Moisture  
Dew Point 34 °F    
Average Humidity 75    
Maximum Humidity 100    
Minimum Humidity 40    
Precipitation  
Precipitation 0.00 in - - ()
Sea Level Pressure  
Sea Level Pressure 30.06 in    
Wind  
Wind Speed 6 mph (ENE)    
Max Wind Speed 23 mph    
Max Gust Speed 28 mph    
Visibility 7 miles    
Events      
Averages and records for this station are not official NWS values.
T = Trace of Precipitation, MM = Missing Value Source: NWS Daily Summary

Daily Weather History Graph

Daily Weather History Graph

Search for Another Location

Airport or City:

Trip Planner

Search our weather history database for the weather conditions in past years. The results will help you decide how hot, cold, wet, or windy it might be!

Date:

Astronomy

Feb. 25, 2014 Rise Set
Actual Time 6:25 AM MST 5:47 PM MST
Civil Twilight 6:00 AM MST 6:11 PM MST
Nautical Twilight 5:31 AM MST 6:40 PM MST
Astronomical Twilight 5:03 AM MST 7:09 PM MST
Moon 3:13 AM MST (2/25) 2:03 PM MST (2/25)
Length of Visible Light 12h 11m
Length of Day
11h 21m
Waning Crescent, 17% of the Moon is Illuminated
Feb 25
Waning Crescent
Mar 1
New
Mar 8
First Quarter
Mar 16
Full
Mar 23
Last Quarter

Hourly Weather History & Observations

Time (MST) Temp. Windchill Dew Point Humidity Pressure Visibility Wind Dir Wind Speed Gust Speed Precip Events Conditions
12:15 AM 48.2 °F - 24.8 °F 40% 30.02 in 10.0 mi SW 3.5 mph - N/A   Clear
12:35 AM 46.4 °F - 24.8 °F 43% 30.02 in 10.0 mi Calm Calm - N/A   Clear
12:55 AM 46.4 °F - 24.8 °F 43% 30.02 in 10.0 mi Calm Calm - N/A   Clear
1:15 AM 44.6 °F - 24.8 °F 46% 30.02 in 10.0 mi Calm Calm - N/A   Clear
1:35 AM 46.4 °F - 24.8 °F 43% 30.02 in 10.0 mi Calm Calm - N/A   Clear
1:55 AM 44.6 °F - 24.8 °F 46% 30.02 in 10.0 mi Calm Calm - N/A   Clear
2:15 AM 42.8 °F - 24.8 °F 49% 30.01 in 10.0 mi Calm Calm - N/A   Clear
2:35 AM 44.6 °F - 24.8 °F 46% 30.01 in 10.0 mi Calm Calm - N/A   Clear
2:55 AM 42.8 °F - 24.8 °F 49% 30.01 in 10.0 mi Calm Calm - N/A   Clear
3:15 AM 42.8 °F - 24.8 °F 49% 30.01 in 10.0 mi Calm Calm - N/A   Clear
3:35 AM 44.6 °F - 24.8 °F 46% 30.00 in 10.0 mi Calm Calm - N/A   Clear
3:55 AM 44.6 °F - 26.6 °F 49% 30.00 in 10.0 mi Calm Calm - N/A   Clear
5:50 AM 39.2 °F 28.7 °F 26.6 °F 61% 30.06 in 10.0 mi North 23.0 mph 27.6 mph N/A   Mostly Cloudy
6:50 AM 37.4 °F 27.8 °F 28.4 °F 70% 30.10 in 8.0 mi North 17.3 mph - N/A   Scattered Clouds
7:30 AM 37.4 °F 26.6 °F 32.0 °F 81% 30.14 in 8.0 mi NNE 21.9 mph 25.3 mph N/A   Mostly Cloudy
7:50 AM 37.4 °F 27.8 °F 32.0 °F 81% 30.14 in 7.0 mi NNE 17.3 mph - N/A   Overcast
8:18 AM 37.4 °F 28.9 °F 35.6 °F 93% 30.15 in 4.0 mi NNE 13.8 mph 18.4 mph N/A   Overcast
8:50 AM 39.2 °F 30.8 °F 37.4 °F 93% 30.15 in 3.0 mi NNE 15.0 mph - N/A   Overcast
9:50 AM 39.2 °F 31.6 °F 37.4 °F 93% 30.16 in 3.0 mi North 12.7 mph - N/A   Overcast
10:50 AM 41.0 °F 33.9 °F 37.4 °F 87% 30.16 in 4.0 mi North 12.7 mph - N/A   Overcast
11:10 AM 42.8 °F 36.6 °F 37.4 °F 81% 30.16 in 4.0 mi North 11.5 mph - N/A   Overcast
11:50 AM 42.8 °F 38.0 °F 37.4 °F 81% 30.14 in 5.0 mi North 8.1 mph - N/A   Overcast
12:50 PM 44.6 °F 40.7 °F 37.4 °F 76% 30.09 in 5.0 mi NNE 6.9 mph - N/A   Haze
1:50 PM 44.6 °F 41.4 °F 37.4 °F 76% 30.06 in 5.0 mi NE 5.8 mph - N/A   Haze
2:50 PM 46.4 °F 43.5 °F 37.4 °F 71% 30.02 in 6.0 mi NE 5.8 mph - N/A   Overcast
3:50 PM 48.2 °F - 37.4 °F 66% 30.01 in 7.0 mi East 3.5 mph - N/A   Mostly Cloudy
4:50 PM 46.4 °F 45.2 °F 39.2 °F 76% 30.00 in 7.0 mi East 3.5 mph - N/A   Mostly Cloudy
5:15 PM 46.4 °F 42.4 °F 39.2 °F 76% 30.00 in 7.0 mi East 8.1 mph - N/A   Clear
5:35 PM 46.4 °F 43.5 °F 37.4 °F 71% 30.00 in 6.0 mi East 5.8 mph - N/A   Haze
5:50 PM 44.6 °F 41.4 °F 39.2 °F 81% 30.01 in 7.0 mi East 5.8 mph - N/A   Mostly Cloudy
5:55 PM 44.6 °F 42.2 °F 39.2 °F 81% 30.01 in 7.0 mi East 4.6 mph - N/A   Clear
6:15 PM 44.6 °F 40.7 °F 39.2 °F 81% 30.01 in 8.0 mi ESE 6.9 mph - N/A   Clear
6:35 PM 44.6 °F 40.7 °F 37.4 °F 76% 30.02 in 9.0 mi ESE 6.9 mph - N/A   Clear
6:55 PM 44.6 °F 41.4 °F 39.2 °F 81% 30.02 in 8.0 mi ESE 5.8 mph - N/A   Clear
7:15 PM 44.6 °F 39.7 °F 39.2 °F 81% 30.03 in 8.0 mi ESE 9.2 mph - N/A   Clear
7:35 PM 42.8 °F 38.0 °F 39.2 °F 87% 30.04 in 7.0 mi ESE 8.1 mph - N/A   Clear
7:55 PM 42.8 °F 38.6 °F 39.2 °F 87% 30.05 in 8.0 mi ESE 6.9 mph - N/A   Scattered Clouds
8:15 PM 42.8 °F 37.5 °F 39.2 °F 87% 30.05 in 8.0 mi East 9.2 mph - N/A   Scattered Clouds
8:35 PM 41.0 °F 35.2 °F 39.2 °F 93% 30.05 in 6.0 mi ESE 9.2 mph - N/A   Partly Cloudy
8:55 PM 41.0 °F 35.2 °F 39.2 °F 93% 30.06 in 5.0 mi ESE 9.2 mph - N/A   Mostly Cloudy
9:15 PM 41.0 °F 35.2 °F 39.2 °F 93% 30.06 in 5.0 mi East 9.2 mph - N/A   Overcast
9:35 PM 41.0 °F 35.2 °F 39.2 °F 93% 30.07 in 5.0 mi East 9.2 mph - N/A   Overcast
9:55 PM 41.0 °F 34.7 °F 41.0 °F 100% 30.07 in 4.0 mi East 10.4 mph - N/A   Overcast
10:15 PM 41.0 °F 33.5 °F 41.0 °F 100% 30.08 in 3.0 mi East 13.8 mph - N/A   Overcast
10:35 PM 39.2 °F 31.2 °F 39.2 °F 100% 30.09 in 1.8 mi ENE 13.8 mph - N/A   Overcast
10:55 PM 39.2 °F 30.5 °F 39.2 °F 100% 30.10 in 0.8 mi ENE 16.1 mph - N/A   Overcast
11:15 PM 39.2 °F 30.2 °F 39.2 °F 100% 30.10 in 0.5 mi ENE 17.3 mph 24.2 mph N/A   Overcast
11:35 PM 37.4 °F 27.5 °F 37.4 °F 100% 30.13 in 0.5 mi NE 18.4 mph 24.2 mph N/A   Overcast
11:55 PM 35.6 °F 24.8 °F 35.6 °F 100% 30.14 in 2.5 mi NE 19.6 mph 27.6 mph N/A   Overcast